CAPE
953 1530 1629 828 509 174 80 40 18 29 8 5 19 36 19 3 0 453 668 1124 1754 1752 2190 2582 3310 3359 3589 3554 3627 3587 3319 2992 2841 2783 2555 2123 2140 2100 1721 2204 2022 1633 1456 1125 1153 1172 1315 1188 1233
1551 1303 923 320 130 227 108 48 0 10 34 15 9 137 252 278 396 688 1151 1387 2158 2234 2152 2247 3415 3658 3857 3852 3986 3842 3463 2725 2497 2394 2544 2224 2116 1834 1891 2018 1705 1656 1421 1257 909 1071 1174 1205 1275
1773 2319 1028 89 42 314 52 41 2 39 12 433 29 103 239 413 519 1227 1537 1811 1869 2501 2079 2701 3680 3846 3720 3850 3937 3825 3637 3204 2669 2554 2444 2382 2123 1866 1808 1798 1256 1346 1487 1366 1320 1235 1138 1274 1376
1918 1728 1414 379 408 284 127 26 113 21 20 197 1 249 489 419 921 1188 1623 1562 1759 1729 2582 3262 3666 3753 3561 3723 3753 3753 3593 3426 2935 2809 2724 2416 2249 2007 1621 1405 1487 1285 1500 1571 1301 1025 1312 1359 1546
955 718 3 66 185 224 52 7 5 242 182 260 136 1 914 959 1133 1357 1513 1394 1593 2629 2762 2680 3732 3991 3820 3676 3798 3736 3825 3720 3322 3253 2789 2595 2427 2172 2072 1772 1747 1732 1453 1374 1560 960 1449 1154 1579
135 273 65 16 135 98 38 85 70 178 326 663 288 117 739 1567 1494 1483 1518 1617 2658 3080 2832 2717 3846 4165 4016 3493 3718 3918 3982 3788 3775 3561 3159 2740 2666 2697 2684 1861 1722 1707 1378 1597 1588 1458 1444 1357 1570
131 212 235 27 36 24 0 19 102 300 224 451 306 25 982 1844 1782 1908 2093 1701 3072 3517 3279 3040 3020 3212 3508 3542 3703 4052 4056 4002 3851 3686 3537 3226 2639 2477 2333 2279 1812 1743 1669 1613 1576 1520 1583 1357 1482
1 166 148 44 219 139 107 71 6 393 351 588 466 359 1307 2088 1925 1889 2473 2740 2610 3184 3719 3278 3295 3269 3212 3271 3787 3844 4036 3901 3664 3337 2805 2425 2447 2497 2340 2774 2556 1922 1631 1511 1492 1729 1765 1874 1722
0 117 12 39 93 234 99 18 136 299 475 536 1016 1287 2326 2065 2043 2312 2698 2717 3285 3330 3424 3388 3402 3461 3681 3359 3148 3717 3404 3211 2927 2556 2796 3063 2384 2253 2162 2328 2615 1865 1731 1512 1422 1757 1761 2104 1379
0 102 4 125 116 137 21 43 67 386 138 59 3 1446 2082 1993 1767 2310 2188 2459 2550 2811 3544 3259 3003 3030 3117 2601 2543 2740 2428 2756 2935 2740 2915 2593 2070 2377 2238 2061 2226 1598 1626 1644 1842 1952 1706 1732 1123
2 29 194 190 198 21 16 4 95 394 204 93 134 1499 1997 2010 2256 2240 2108 2188 2606 3027 2711 3417 3258 3372 2775 2245 2351 2898 2448 2276 2487 2250 1882 2489 2122 2268 1877 2582 1842 1775 1996 1480 2073 1969 1448 1032 1184
0 1 159 128 152 51 76 9 0 87 317 571 1024 1846 2006 2002 1739 1725 2223 2372 2659 2780 2898 3175 3486 3388 2724 3158 1610 1783 2413 2273 1835 1741 2112 1265 1128 1319 2237 2443 2300 2283 2064 2473 2046 1838 2036 1535 879
0 42 36 147 163 166 56 0 88 653 531 1586 1656 1883 1982 2039 1605 1705 1883 1950 2012 2333 2706 2988 3437 3852 3332 2560 1283 1671 2186 2245 2063 1934 1156 765 850 1597 2170 1835 2022 2140 2226 2631 1820 1809 1736 1561 1237
0 72 131 18 162 97 64 50 114 201 593 1592 1981 1925 1919 2007 1388 1563 1974 1964 1939 2058 2512 3143 3209 3498 3429 3389 2798 2568 2377 1542 1149 1831 1690 1167 1391 2353 2184 1879 1666 1556 2037 1573 2089 1885 1819 1384 1742
0 0 86 141 112 249 0 252 22 4 468 1014 1742 1812 1833 2223 1474 1782 2221 2361 2216 2407 2560 2900 3176 3199 3575 3725 3342 3374 2727 1976 1796 1553 1861 1293 1500 1727 1724 1526 1479 2025 2362 1844 2033 1838 1849 1440 1737
101 30 74 160 205 277 16 142 117 442 584 1233 1497 1668 1670 1954 1461 1721 2367 2666 2953 2713 3016 3196 2511 3046 3544 3668 3484 2956 2250 2367 1997 1464 1700 1964 1920 1679 2156 1614 1269 1907 2120 1907 1400 1475 1526 1439 1738
70 76 4 33 211 115 22 398 787 436 487 1104 1211 1588 1431 1772 1841 2051 2053 2234 2582 3569 3667 3606 3610 3376 3555 3743 2949 2823 2617 2227 1883 1731 1511 2200 1814 1742 1670 1424 1132 1664 1876 2235 2199 1134 1452 1383 1365
18 102 46 2 0 148 17 0 500 231 454 763 1189 1451 1603 1746 1789 1905 1871 1976 2618 3059 3695 3685 3439 3636 3646 3321 3263 3032 2218 1950 1808 1346 1968 1553 1624 1404 1458 1421 1322 1106 878 1936 2093 1433 1283 882 967
81 150 118 206 243 146 19 0 113 479 349 180 1055 1016 1503 1639 1893 2202 2008 2311 2778 3040 3655 3823 3496 3802 3559 3406 2583 2161 1617 1532 1567 1590 1677 1803 1273 1096 1280 1127 981 1216 1055 1515 1679 1639 1137 1241 1091
70 28 94 168 170 90 6 0 0 320 208 78 201 925 1440 1317 1525 2314 2640 2615 2946 3357 3664 3978 3296 3294 3003 2847 2344 2604 2492 1749 1316 1642 1377 983 808 934 1182 1054 1296 1462 897 1166 1727 1238 1169 1346 905
0 1 24 68 2 102 0 26 103 110 48 75 148 662 746 1260 1786 2692 2480 3150 3305 3668 3677 3789 3137 2836 2778 2215 2385 2411 2172 898 880 452 1291 1139 845 777 941 966 1193 817 1312 987 1374 1350 551 953 1102
0 0 0 2 0 3 5 112 765 290 176 14 5 382 496 1089 1286 2877 3103 3380 3443 3455 3321 3541 3767 3669 2662 1778 1638 1817 1543 523 678 840 1118 710 548 934 706 841 1037 1451 1305 892 1548 1170 492 495 841
0 0 0 0 0 0 0 0 703 609 121 13 0 3 489 1002 1260 3067 2802 3141 3197 3036 3227 3419 3737 3434 2704 1920 1541 1517 468 839 1284 759 1009 1447 909 1093 774 799 920 1279 1265 868 809 1028 1117 652 395
0 0 0 0 0 0 0 0 138 119 360 7 54 401 1151 1849 2853 2941 2975 3149 3070 2314 2498 3056 3435 3177 2110 1401 1726 1414 1232 1078 1253 1245 997 1342 1410 1356 947 691 1011 1133 1180 815 545 894 1190 555 319
0 0 0 0 0 0 144 15 411 590 485 288 584 943 1683 2866 2687 2277 1600 2739 2630 2075 1913 1041 3015 2458 1978 1536 1145 1171 1169 1092 1029 1083 1083 1092 1152 1144 988 779 858 979 1378 846 736 552 652 449 344
0 0 0 59 11 94 327 56 125 867 653 348 692 1082 1719 2559 1951 1602 1744 1752 2071 1659 1357 835 2194 1974 1195 1307 1336 1296 700 202 863 1038 1081 1196 1170 1042 1085 1006 943 1068 1044 823 599 1254 346 476 279
0 0 0 0 0 32 258 193 151 244 540 813 887 1068 1624 2539 1755 926 681 1494 1507 1387 1171 1634 1564 1541 1193 1119 1047 1209 579 180 509 975 1045 1259 1102 1030 1150 916 836 650 633 1082 891 438 539 234 218
0 0 0 0 0 33 154 236 862 810 781 1019 1003 1017 1554 2713 1642 1277 1310 1284 1262 1222 1504 1081 1374 1132 1166 1236 1247 1016 309 261 490 635 613 1089 511 956 805 1016 785 449 339 412 468 288 303 241 155
0 0 0 0 2 40 242 346 642 212 270 975 1192 1182 1613 2382 1789 1501 1156 1078 1045 1128 1095 905 1095 1211 1059 941 1293 898 112 196 507 239 307 378 724 370 251 267 1019 802 404 243 254 296 272 276 182
0 0 0 0 233 100 249 409 139 191 45 414 1052 1612 1870 2222 1831 1565 1366 1322 1034 980 1168 610 1004 1062 992 1062 1081 789 379 165 744 515 479 547 605 579 305 292 198 289 277 172 214 166 207 153 119
CIN
-382 -209 -154 -55 -36 -144 -11 -1 -0 -0 -1 -0 -0 -3 -19 -10 -0 -15 -1 -2 -22 -38 -101 -52 -1 -0 -0 -0 -0 -2 -1 -0 -1 -3 -1 -2 -2 -0 -0 -0 -0 -0 -0 -3 -4 -4 -1 -0 -0
-186 -125 -17 -53 -260 -70 -1 -1 -0 -1 -1 -3 -5 -1 -15 -25 -37 -19 -12 -1 -7 -27 -78 -61 -0 -0 -0 -1 -2 -1 -1 -4 -7 -8 -2 -4 -2 -2 -0 -0 -0 -0 -0 -1 -8 -3 -2 -2 -0
-214 -57 -8 -82 -61 -50 -3 -1 -0 -33 -9 -17 -51 -78 -9 -7 -1 -5 -15 -2 -22 -10 -28 -50 -0 -0 -0 -1 -2 -1 -1 -1 -5 -4 -2 -3 -2 -1 -0 -0 -1 -0 -1 -2 -1 -0 -0 -0 -0
-76 -18 -4 -5 -27 -53 -4 -1 -18 -78 -54 -74 -1 -45 -33 -38 -6 -26 -16 -2 -1 -6 -19 -41 -0 -0 -0 -0 -2 -1 -1 -1 -4 -2 -1 -1 -1 -0 -0 -4 -0 -5 -1 -0 -3 -6 -1 -0 -0
-87 -22 -125 -31 -262 -12 -2 -3 -4 -27 -12 -38 -103 -2 -19 -40 -48 -44 -11 -0 -4 -42 -74 -80 -8 -0 -0 -0 -1 -1 -0 -0 -0 -0 -1 -0 -0 -0 -0 -0 -1 -0 -0 -1 -1 -7 -0 -0 -0
-88 -2 -109 -112 -82 -16 -11 -5 -12 -10 -1 -94 -26 -327 -33 -2 -24 -22 -2 -0 -8 -24 -49 -72 -4 -0 -0 -0 -0 -0 -0 -0 -0 -0 -0 -0 -0 -0 -0 -2 -2 -3 -2 -0 -2 -1 -0 -0 -0
-35 -4 -55 -91 -224 -44 -0 -17 -2 -8 -33 -4 -21 -78 -43 -2 -16 -4 -1 -2 -20 -1 -19 -41 -18 -2 -0 -0 -0 -0 -0 -0 -0 -0 -0 -0 -0 -0 -0 -0 -4 -4 -1 -2 -1 -1 -0 -0 -0
-2 -0 -4 -19 -7 -208 -27 -33 -69 -2 -20 -14 -148 -158 -76 -23 -37 -25 -1 -4 -3 -2 -1 -16 -0 -0 -0 -0 -0 -0 -0 -0 -0 -0 -0 -6 -5 -0 -0 -0 -0 -2 -3 -2 -2 -1 -0 -0 -0
-0 -5 -120 -146 -2 -18 -12 -13 -14 -30 -123 -31 -22 -11 -20 -49 -58 -50 -12 -4 -3 -8 -2 -13 -1 -2 -1 -1 -0 -0 -0 -0 -2 -0 -0 -0 -6 -6 -1 -1 -2 -5 -2 -2 -3 -2 -2 -0 -0
-0 -72 -134 -155 -30 -5 -6 -18 -8 -198 -8 -33 -3 -32 -32 -65 -74 -38 -56 -8 -0 -2 -3 -10 -6 -1 -3 -1 -12 -2 -2 -1 -1 -8 -3 -7 -7 -12 -1 -1 -6 -6 -9 -3 -2 -2 -3 -3 -1
-91 -78 -264 -68 -3 -52 -44 -2 -2 -262 -248 -183 -396 -74 -10 -45 -61 -45 -19 -19 -1 -8 -14 -10 -8 -3 -6 -16 -32 -10 -3 -2 -8 -24 -44 -12 -11 -3 -12 -14 -22 -22 -3 -14 -2 -1 -4 -12 -26
-0 -4 -80 -2 -7 -36 -2 -10 -0 -3 -98 -42 -51 -86 -32 -35 -66 -42 -0 -1 -1 -5 -6 -14 -8 -8 -27 -25 -11 -20 -3 -5 -49 -58 -6 -51 -54 -48 -11 -15 -17 -14 -25 -8 -13 -6 -7 -11 -37
-0 -78 -70 -15 -44 -25 -11 -0 -6 -21 -39 -33 -58 -63 -19 -49 -52 -29 -9 -2 -2 -1 -2 -4 -11 -5 -8 -43 -50 -33 -36 -10 -8 -43 -85 -100 -85 -23 -2 -20 -19 -12 -22 -9 -23 -16 -14 -14 -23
-0 -79 -59 -104 -43 -49 -1 -23 -116 -88 -15 -22 -22 -25 -26 -5 -29 -35 -19 -19 -28 -25 -4 -2 -1 -0 -0 -1 -10 -24 -27 -88 -59 -20 -42 -64 -31 -1 -3 -2 -31 -29 -25 -44 -21 -13 -19 -29 -15
-0 -0 -56 -51 -44 -2 -0 -56 -47 -15 -27 -3 -0 -0 -2 -0 -40 -39 -21 -20 -26 -16 -3 -2 -3 -1 -0 -0 -4 -9 -15 -12 -30 -24 -36 -53 -40 -16 -14 -15 -8 -16 -18 -22 -22 -13 -14 -32 -20
-90 -121 -39 -22 -20 -5 -26 -30 -243 -42 -8 -3 -0 -0 -2 -0 -40 -34 -20 -14 -2 -3 -3 -4 -4 -6 -0 -1 -0 -1 -2 -3 -11 -22 -11 -28 -17 -18 -4 -7 -3 -4 -10 -23 -46 -52 -29 -35 -20
-93 -66 -2 -294 -364 -9 -38 -9 -34 -20 -8 -1 -2 -1 -1 -0 -6 -5 -15 -15 -7 -3 -4 -3 -2 -2 -2 -0 -1 -2 -2 -4 -13 -14 -25 -22 -20 -10 -6 -2 -10 -10 -19 -15 -10 -54 -43 -32 -24
-58 -10 -83 -8 -0 -17 -29 -0 -27 -51 -1 -3 -3 -4 -1 -2 -3 -14 -24 -7 -4 -3 -3 -1 -0 -1 -0 -0 -1 -3 -2 -1 -3 -11 -17 -44 -25 -29 -4 -3 -9 -18 -21 -12 -6 -26 -47 -47 -35
-54 -36 -1 -35 -32 -31 -26 -0 -4 -3 -8 -4 -0 -43 -3 -3 -17 -6 -15 -1 -15 -8 -2 -1 -1 -1 -4 -3 -5 -9 -24 -29 -7 -16 -23 -15 -17 -10 -16 -1 -21 -13 -16 -23 -29 -17 -31 -17 -25
-51 -56 -40 -15 -8 -41 -109 -0 -0 -305 -145 -318 -6 -16 -2 -6 -3 -24 -11 -5 -7 -17 -3 -2 -2 -4 -3 -3 -6 -3 -1 -7 -27 -13 -41 -45 -17 -9 -2 -3 -2 -8 -27 -10 -10 -26 -26 -15 -36
-0 -32 -38 -33 -23 -50 -0 -76 -25 -426 -38 -292 -81 -2 -1 -1 -3 -6 -19 -7 -1 -28 -14 -2 -9 -4 -2 -5 -2 -1 -1 -35 -28 -47 -11 -18 -32 -9 -4 -2 -2 -24 -8 -14 -11 -18 -70 -21 -17
-0 -0 -0 -11 -0 -46 -16 -1 -3 -212 -223 -36 -27 -5 -10 -2 -5 -29 -30 -7 -1 -1 -31 -25 -8 -2 -0 -6 -13 -0 -0 -20 -23 -13 -9 -22 -23 -4 -6 -3 -1 -1 -4 -21 -6 -25 -40 -52 -10
-0 -0 -0 -0 -0 -0 -0 -1 -14 -21 -121 -55 -0 -2 -6 -4 -3 -8 -20 -22 -1 -0 -23 -30 -20 -5 -2 -1 -5 -1 -13 -0 -1 -12 -1 -1 -12 -4 -1 -2 -2 -0 -1 -28 -27 -14 -14 -59 -37
-0 -0 -0 -0 -0 -0 -13 -0 -22 -186 -125 -214 -40 -2 -3 -6 -17 -12 -29 -18 -6 -1 -9 -19 -11 -1 -0 -0 -0 -0 -0 -0 -0 -1 -0 -1 -0 -0 -1 -2 -1 -1 -1 -13 -27 -25 -13 -57 -36
-0 -0 -0 -0 -0 -0 -9 -2 -1 -7 -58 -107 -9 -8 -2 -7 -36 -51 -48 -1 -0 -22 -21 -45 -7 -0 -0 -0 -0 -0 -0 -0 -0 -0 -1 -0 -0 -0 -0 -2 -1 -0 -0 -11 -17 -35 -31 -57 -38
-0 -0 -0 -1 -0 -15 -27 -53 -100 -15 -36 -29 -7 -1 -6 -21 -29 -46 -26 -2 -1 -41 -52 -58 -1 -3 -38 -6 -0 -0 -0 -4 -1 -0 -2 -0 -1 -1 -0 -0 -0 -0 -0 -9 -26 -10 -48 -41 -66
-0 -0 -0 -0 -0 -2 -21 -50 -49 -7 -23 -28 -10 -3 -1 -25 -60 -102 -54 -0 -17 -45 -41 -1 -14 -15 -32 -22 -9 -0 -0 -6 -1 -0 -2 -1 -1 -4 -0 -0 -1 -6 -5 -1 -10 -30 -29 -75 -79
-0 -0 -0 -0 -0 -3 -4 -0 -8 -51 -38 -16 -11 -13 -2 -10 -38 -26 -14 -11 -33 -42 -7 -11 -16 -26 -8 -17 -1 -3 -9 -7 -3 -6 -9 -0 -10 -3 -2 -0 -0 -11 -16 -16 -18 -42 -44 -57 -68
-0 -0 -0 -0 -0 -2 -0 -69 -114 -231 -161 -33 -7 -18 -1 -18 -29 -79 -16 -8 -27 -19 -7 -12 -18 -14 -16 -41 -4 -7 -57 -17 -1 -10 -14 -19 -5 -18 -38 -22 -0 -0 -15 -24 -13 -11 -21 -19 -31
-0 -0 -0 -1 -5 -9 -1 -57 -157 -52 -322 -223 -1 -7 -1 -14 -52 -15 -13 -17 -25 -9 -2 -46 -63 -43 -43 -28 -2 -17 -24 -31 -0 -3 -1 -6 -5 -5 -9 -16 -16 -14 -5 -9 -10 -11 -9 -20 -26
Wind_Speed
21 22 16 22 22 24 nan nan nan nan nan nan nan nan nan nan nan 15 22 29 28 26 23 20 17 16 17 17 18 17 17 17 14 20 18 13 11 11 10 9 11 11 11 9 9 9 9 8 7
22 15 3 14 27 23 4 nan nan nan nan nan nan 10 13 15 23 23 19 19 29 26 20 20 19 18 19 18 18 19 18 17 15 12 15 14 11 8 9 7 10 10 11 8 8 9 10 8 6
19 13 17 nan nan 23 nan nan nan nan nan 22 nan 10 10 18 19 17 19 19 20 24 19 22 20 19 20 19 19 19 17 17 16 16 14 14 13 9 8 8 8 9 13 8 8 8 9 8 6
11 8 13 20 33 42 9 nan 37 nan nan 24 nan 8 16 10 14 17 19 17 17 22 26 23 20 19 19 18 19 18 17 16 17 16 16 16 15 11 8 8 5 9 11 8 9 9 9 7 6
10 8 nan nan 57 21 nan nan nan 22 15 33 34 nan 1 9 19 20 18 16 15 27 24 21 20 17 16 16 17 17 19 17 18 17 17 15 15 13 11 10 8 7 11 11 8 7 8 7 5
10 9 nan nan 31 nan nan nan nan 16 17 50 36 31 8 19 20 16 15 14 20 23 25 22 20 17 18 15 16 18 20 19 18 17 16 13 14 13 15 9 8 7 10 11 10 6 7 7 5
13 5 22 nan nan nan nan nan 15 24 20 16 41 nan 23 25 24 19 15 14 18 20 21 22 19 19 19 17 19 20 19 19 19 18 15 11 10 10 11 8 5 10 7 10 9 7 6 6 5
nan 26 30 nan 13 34 18 nan nan 18 23 12 35 36 28 34 28 23 17 14 16 18 18 20 20 18 17 18 20 20 19 17 17 15 13 10 8 11 9 6 6 11 6 8 8 7 7 6 6
nan 18 nan nan nan 17 nan nan 30 28 45 30 24 23 39 39 34 26 22 20 16 20 17 17 19 17 18 19 18 18 19 18 16 15 13 14 12 14 12 15 7 10 8 8 10 10 8 8 7
nan 10 nan 28 22 16 nan nan nan 31 47 nan nan 3 28 39 37 30 26 26 23 18 17 18 16 17 18 17 18 15 16 15 13 11 13 9 13 22 22 22 23 9 9 11 12 10 9 7 11
nan nan 41 28 9 nan nan nan nan 50 50 nan 38 28 35 37 38 30 30 28 24 21 22 18 16 15 16 14 18 14 10 13 13 13 14 7 16 17 15 24 30 22 12 16 18 17 14 9 12
nan nan 29 7 3 nan nan nan nan nan 35 41 40 34 36 37 37 33 32 29 30 28 25 22 19 16 14 17 21 8 10 9 13 14 18 16 13 11 6 18 21 27 22 19 21 19 19 16 12
nan nan nan 7 2 8 nan nan nan 34 36 43 29 31 36 34 36 34 33 29 28 27 24 21 20 17 16 23 23 16 11 12 14 18 23 21 17 15 12 15 21 32 25 25 24 23 21 18 14
nan nan 12 nan 5 nan nan nan 25 18 18 44 40 37 33 38 41 35 30 26 28 27 25 22 20 17 11 15 20 16 14 17 23 8 18 25 20 20 15 17 12 29 28 28 28 28 26 19 17
nan nan nan 10 14 22 nan 25 nan nan 17 16 37 31 33 38 38 35 28 27 29 30 30 26 22 18 15 14 15 10 10 17 25 16 22 24 22 16 17 16 16 19 29 27 32 30 28 23 20
3 nan nan 13 22 14 nan 20 25 31 28 24 22 22 27 34 34 33 26 26 27 29 29 28 24 23 21 18 15 12 12 13 15 18 19 25 22 17 15 15 16 18 25 31 33 29 29 24 23
nan nan nan nan 41 7 nan 22 34 22 38 29 30 24 26 26 29 29 29 26 27 25 27 25 23 24 24 22 20 21 16 16 17 19 25 26 27 22 17 15 17 19 20 31 33 31 34 32 29
nan 7 nan nan nan 22 nan nan 34 34 29 31 35 37 20 27 24 28 33 30 30 24 23 21 19 19 21 20 21 19 20 22 23 21 25 27 25 26 21 17 17 21 18 34 37 34 29 36 34
nan 15 12 49 13 18 nan nan 9 22 22 17 25 57 30 24 30 30 32 34 32 26 23 22 22 22 24 24 26 23 24 26 24 27 31 25 28 26 28 20 18 21 17 22 32 36 33 31 28
nan nan nan 8 8 nan nan nan nan 37 39 nan 14 35 37 25 26 34 32 31 37 26 27 26 22 24 26 26 26 27 31 29 17 18 18 25 23 24 25 24 20 22 20 23 31 30 38 38 32
nan nan nan nan nan 19 nan nan 17 36 nan nan 14 22 25 31 36 32 16 40 31 32 26 25 22 19 26 28 30 33 36 29 18 16 15 18 16 17 16 22 24 22 22 22 28 29 31 37 34
nan nan nan nan nan nan nan 5 5 43 32 nan nan 16 20 28 26 32 38 38 36 34 37 22 22 21 24 30 36 39 39 22 15 16 15 16 17 17 17 20 24 23 22 20 25 27 33 35 30
nan nan nan nan nan nan nan nan 22 30 29 nan nan nan 32 37 37 35 37 37 40 34 28 23 23 25 29 27 33 34 32 18 10 8 8 8 15 14 14 16 20 22 21 20 23 26 31 31 21
nan nan nan nan nan nan nan nan 15 39 19 nan nan 17 47 35 37 37 38 33 35 32 29 22 23 25 27 27 28 30 25 8 6 3 4 7 12 13 11 11 16 20 19 22 23 24 30 28 22
nan nan nan nan nan nan 4 nan 8 32 40 37 34 42 36 41 33 32 30 26 26 26 26 18 26 27 29 24 27 27 21 3 1 1 4 5 7 9 7 7 12 18 19 22 23 23 22 23 26
nan nan nan nan nan nan 22 nan 27 39 33 36 43 37 32 35 29 29 26 23 25 24 25 20 25 26 23 23 24 29 17 4 6 6 5 4 5 7 8 8 11 14 18 20 19 25 28 27 28
nan nan nan nan nan nan 29 18 29 18 34 33 34 23 28 38 27 27 22 25 26 25 26 26 24 23 19 20 21 27 20 3 2 3 7 6 8 6 6 6 8 10 14 17 22 30 33 37 35
nan nan nan nan nan nan 5 8 33 35 29 25 25 16 25 34 39 30 17 27 27 28 26 29 25 19 12 13 17 22 29 12 2 6 8 7 5 7 6 8 9 8 12 16 24 27 31 33 36
nan nan nan nan nan nan 4 30 29 34 25 20 5 16 28 30 36 33 29 31 28 31 28 32 25 14 9 11 13 22 23 26 17 1 5 4 3 6 10 9 10 12 15 17 22 23 28 29 24
nan nan nan nan 8 10 13 35 41 27 nan 6 13 21 28 35 37 37 34 31 33 33 32 28 24 8 9 15 18 20 21 21 22 24 6 6 7 7 9 8 13 14 20 23 23 19 24 30 34
Wind_Direction
87 70 82 106 104 109 nan nan nan nan nan nan nan nan nan nan nan 297 302 301 302 298 292 291 277 274 272 266 273 284 284 292 271 271 275 272 273 274 250 244 239 225 205 204 207 205 196 197 205
93 124 140 131 114 86 162 nan nan nan nan nan nan 253 284 280 281 290 288 305 291 296 294 284 276 270 263 264 269 282 289 293 301 289 273 271 264 271 264 240 242 219 192 190 197 207 194 197 212
93 109 355 nan nan 81 nan nan nan nan nan 296 nan 334 295 307 305 280 310 304 288 294 302 283 275 271 269 265 274 281 287 290 295 293 280 263 258 261 270 250 219 207 183 170 177 199 190 206 200
107 98 88 47 39 73 246 nan 320 nan nan 344 nan 241 314 333 300 302 328 322 304 296 281 289 283 278 280 279 281 288 291 289 287 286 281 264 251 255 258 257 219 197 185 162 169 176 193 199 209
96 194 nan nan 108 90 nan nan nan 352 13 312 287 nan 121 8 316 317 322 307 300 275 282 287 291 287 287 285 283 285 288 290 288 291 293 268 256 240 254 254 245 208 196 166 174 184 195 197 201
122 297 nan nan 91 nan nan nan nan 297 313 304 294 326 3 14 338 324 335 334 295 288 281 281 288 294 289 291 297 296 300 302 303 305 301 280 258 235 251 256 263 246 209 182 164 177 210 191 209
99 333 27 nan nan nan nan nan 261 300 270 228 309 nan 40 4 340 342 342 338 309 290 282 274 271 278 284 296 304 302 303 307 309 310 306 295 284 263 251 259 259 263 229 208 176 177 202 215 217
nan 125 225 nan 34 11 55 nan nan 308 284 163 333 334 13 346 340 329 325 324 319 299 293 282 275 273 277 286 302 306 316 309 308 306 305 282 292 273 246 254 265 267 247 233 207 186 204 228 222
nan 209 nan nan nan 323 nan nan 354 295 285 176 165 329 330 339 329 323 329 336 315 320 297 294 289 285 286 289 295 307 323 329 327 327 318 290 283 293 252 261 255 283 248 233 235 220 208 222 238
nan 260 nan 50 32 211 nan nan nan 288 292 nan nan 1 338 336 334 330 334 343 341 334 315 307 308 301 293 294 298 304 315 305 307 292 299 224 328 299 260 238 246 254 256 247 239 242 237 222 225
nan nan 42 54 279 nan nan nan nan 312 308 nan 13 3 350 343 330 337 345 344 348 343 337 315 303 315 321 287 283 277 281 286 291 295 282 221 273 303 245 222 229 239 240 234 239 230 221 214 207
nan nan 12 102 223 nan nan nan nan nan 315 335 7 343 352 346 335 342 349 350 348 348 350 341 325 303 308 287 266 271 307 304 287 281 285 281 279 302 242 229 244 229 243 228 235 235 229 202 225
nan nan nan 110 80 68 nan nan nan 211 310 327 345 346 355 335 336 347 344 348 339 335 332 338 337 332 309 297 301 354 321 319 289 285 291 284 286 285 267 244 250 231 232 226 222 230 231 226 218
nan nan 73 nan 115 nan nan nan 308 242 141 325 328 336 342 337 341 342 340 343 341 341 340 333 340 330 308 308 309 313 319 281 257 222 283 288 284 279 269 275 289 224 225 220 222 224 226 224 215
nan nan nan 78 56 51 nan 280 nan nan 49 325 316 334 341 339 340 337 337 339 342 348 346 343 351 355 349 344 321 307 271 282 301 323 292 289 292 279 282 272 264 241 223 215 218 219 226 218 223
37 nan nan 84 128 295 nan 293 355 356 20 334 323 337 329 330 337 337 329 336 339 340 344 348 356 354 351 347 339 330 322 298 282 282 274 293 291 293 276 268 279 269 238 213 218 221 228 218 228
nan nan nan nan 126 158 nan 317 340 1 8 324 327 332 329 330 335 333 330 328 330 334 336 343 344 347 346 340 332 321 313 294 279 272 276 273 281 283 278 263 265 268 241 223 217 216 230 213 222
nan 5 nan nan nan 340 nan nan 318 353 321 328 331 320 348 334 341 336 331 331 324 323 326 332 336 336 334 332 328 319 317 312 298 281 275 277 272 279 267 263 259 273 264 228 218 218 223 218 221
nan 174 204 353 353 295 nan nan 271 314 278 355 326 299 350 340 340 344 340 327 318 320 322 321 331 342 342 340 342 333 325 314 298 276 259 262 259 269 265 256 255 263 262 231 218 223 222 224 223
nan nan nan 219 282 nan nan nan nan 268 285 nan 116 320 318 327 342 330 335 322 312 311 316 319 329 345 345 342 341 331 321 324 315 287 263 252 254 262 252 250 248 256 251 244 226 235 234 229 232
nan nan nan nan nan 294 nan nan 26 293 nan nan 63 295 321 330 333 334 335 304 301 300 304 321 328 343 346 345 343 338 332 323 299 300 273 253 225 232 249 253 239 244 250 239 239 238 236 234 225
nan nan nan nan nan nan nan 282 347 307 322 nan nan 312 326 302 293 298 290 295 316 300 300 320 327 330 332 339 344 343 336 322 302 290 277 261 234 236 254 265 239 231 243 248 243 243 232 227 224
nan nan nan nan nan nan nan nan 268 266 265 nan nan nan 307 300 301 302 300 303 318 317 308 304 319 319 329 331 340 340 335 329 318 295 286 245 240 249 266 265 235 228 234 248 248 249 222 229 230
nan nan nan nan nan nan nan nan 282 281 354 nan nan 283 290 285 297 302 305 314 326 308 309 319 318 329 333 333 329 336 337 346 349 344 306 249 251 258 262 251 236 236 235 250 242 233 222 231 229
nan nan nan nan nan nan 148 nan 116 302 297 305 310 296 288 293 311 311 325 327 317 305 294 317 312 328 327 328 341 338 325 303 296 237 323 282 257 251 257 246 241 237 234 238 238 231 223 223 232
nan nan nan nan nan nan 248 nan 155 260 286 304 293 306 312 312 320 324 330 353 318 304 316 314 315 316 330 332 346 344 326 302 297 251 228 262 282 266 258 250 240 244 242 231 231 228 227 234 231
nan nan nan nan nan nan 325 353 324 256 282 295 305 316 318 319 321 328 343 324 317 319 319 320 316 314 325 334 355 351 348 309 304 210 211 241 258 252 240 255 248 239 243 238 232 231 233 231 234
nan nan nan nan nan nan 256 293 282 281 254 297 303 320 306 321 330 344 341 316 318 333 323 328 312 312 319 327 359 356 348 359 211 233 218 219 222 225 245 264 267 240 233 237 235 239 233 236 239
nan nan nan nan nan nan 224 254 254 249 243 233 306 302 300 318 325 318 332 324 328 328 334 342 320 315 332 348 15 350 357 6 6 5 220 172 208 216 217 221 257 238 235 240 243 242 233 235 237
nan nan nan nan 160 186 243 299 289 293 nan 176 63 296 303 314 315 318 322 322 329 339 340 342 349 323 343 354 360 353 356 5 2 11 337 257 277 260 254 264 225 239 236 230 235 240 229 233 237